Tuscaloosa, AL

5:45 AM CDT on July 25, 2017 (GMT -0500)
Tuscaloosa Municipal

Weather History for KTCL - September, 2012

Change the Weather History Date:

Sunday, September 2, 2012

  Actual Average Record
Temperature  
Mean Temperature 82 °F 80 °F  
Max Temperature 89 °F 91 °F 100 °F (1951)
Min Temperature 74 °F 69 °F 54 °F (1954)
Degree Days  
Heating Degree Days 0 0  
Month to date heating degree days 0 0  
Since 1 July heating degree days 0 0  
Cooling Degree Days 16    
Growing Degree Days 31 (Base 50)    
Moisture  
Dew Point 75 °F    
Average Humidity 84    
Maximum Humidity 100    
Minimum Humidity 68    
Precipitation  
Precipitation 0.00 in 0.11 in 3.17 in (2001)
Month to date precipitation 1.33 0.21  
Year to date precipitation 31.02 36.08  
Sea Level Pressure  
Sea Level Pressure 30.00 in    
Wind  
Wind Speed 7 mph (SSW)    
Max Wind Speed 20 mph    
Max Gust Speed 28 mph    
Visibility 8 miles    
Events      
T = Trace of Precipitation, MM = Missing Value Source: NWS Daily Summary

Daily Weather History Graph

Daily Weather History Graph

Search for Another Location

Airport or City:

Trip Planner

Search our weather history database for the weather conditions in past years. The results will help you decide how hot, cold, wet, or windy it might be!

Date:

Astronomy

Sep. 02, 2012 Rise Set
Actual Time 6:25 AM CDT 7:13 PM CDT
Civil Twilight 6:00 AM CDT 7:38 PM CDT
Nautical Twilight 5:30 AM CDT 8:08 PM CDT
Astronomical Twilight 5:00 AM CDT 8:38 PM CDT
Moon 8:12 PM CDT (9/2) 8:23 AM CDT (9/2)
Length of Visible Light 13h 38m
Length of Day
12h 47m
Waning Gibbous, 95% of the Moon is Illuminated
Sep 2
Waning Gibbous
Sep 8
Last Quarter
Sep 15
New
Sep 22
First Quarter
Sep 29
Full

Hourly Weather History & Observations

Time (CDT) Temp. Heat Index Dew Point Humidity Pressure Visibility Wind Dir Wind Speed Gust Speed Precip Events Conditions
12:53 AM 75.0 °F - 73.9 °F 96% 30.05 in 8.0 mi SSE 3.5 mph - N/A   Clear
1:53 AM 75.0 °F - 73.9 °F 96% 30.03 in 8.0 mi Calm Calm - N/A   Clear
2:53 AM 75.0 °F - 73.0 °F 94% 30.03 in 9.0 mi South 3.5 mph - N/A   Clear
3:53 AM 73.9 °F - 73.0 °F 97% 30.03 in 7.0 mi Calm Calm - N/A   Clear
4:51 AM 73.4 °F - 73.4 °F 100% 30.03 in 6.0 mi South 4.6 mph - N/A   Partly Cloudy
4:53 AM 73.9 °F - 73.0 °F 97% 30.02 in 6.0 mi South 5.8 mph - N/A   Partly Cloudy
5:53 AM 73.9 °F - 73.0 °F 97% 30.02 in 7.0 mi South 3.5 mph - N/A   Clear
6:50 AM 73.4 °F - 73.4 °F 100% 30.04 in 5.0 mi South 4.6 mph - N/A   Partly Cloudy
6:53 AM 73.9 °F - 73.0 °F 97% 30.04 in 5.0 mi SSW 4.6 mph - N/A   Partly Cloudy
7:53 AM 75.2 °F - 73.4 °F 94% 30.05 in 6.0 mi SSW 5.8 mph - N/A   Scattered Clouds
8:03 AM 75.2 °F - 73.4 °F 94% 30.05 in 6.0 mi SSW 5.8 mph - N/A   Mostly Cloudy
8:53 AM 78.1 °F - 75.0 °F 90% 30.05 in 6.0 mi SW 6.9 mph - N/A   Overcast
9:22 AM 78.8 °F - 75.2 °F 89% 30.07 in 7.0 mi WSW 6.9 mph - N/A   Overcast
9:53 AM 80.1 °F 85.1 °F 75.0 °F 85% 30.07 in 8.0 mi SW 10.4 mph - N/A   Overcast
10:53 AM 82.9 °F 90.2 °F 75.0 °F 77% 30.05 in 9.0 mi SW 8.1 mph - N/A   Mostly Cloudy
11:53 AM 84.0 °F 91.9 °F 75.0 °F 74% 30.04 in 9.0 mi SSW 10.4 mph - N/A   Overcast
12:10 PM 84.2 °F 92.3 °F 75.2 °F 74% 30.04 in 10.0 mi SSW 11.5 mph - N/A   Overcast
12:30 PM 84.2 °F 92.3 °F 75.2 °F 74% 30.03 in 9.0 mi SW 6.9 mph - N/A   Overcast
12:51 PM 84.2 °F 92.3 °F 75.2 °F 74% 30.02 in 9.0 mi SW 9.2 mph - N/A   Overcast
12:53 PM 84.0 °F 91.9 °F 75.0 °F 74% 30.01 in 9.0 mi SW 9.2 mph - N/A   Overcast
1:53 PM 86.0 °F 96.0 °F 75.9 °F 72% 29.99 in 9.0 mi SSW 11.5 mph - N/A   Overcast
2:53 PM 87.1 °F 98.8 °F 77.0 °F 72% 29.96 in 9.0 mi SSW 6.9 mph - N/A   Mostly Cloudy
3:53 PM 89.1 °F 101.4 °F 77.0 °F 67% 29.94 in 10.0 mi SW 6.9 mph - N/A   Mostly Cloudy
4:53 PM 88.0 °F 100.2 °F 77.0 °F 70% 29.92 in 10.0 mi South 10.4 mph - N/A   Partly Cloudy
5:53 PM 88.0 °F 97.5 °F 75.0 °F 65% 29.91 in 10.0 mi SSW 10.4 mph 19.6 mph N/A   Clear
6:53 PM 84.9 °F 94.1 °F 75.9 °F 74% 29.91 in 9.0 mi South 6.9 mph - N/A   Clear
7:53 PM 82.9 °F 90.8 °F 75.9 °F 79% 29.91 in 10.0 mi South 5.8 mph - N/A   Clear
8:53 PM 82.0 °F 89.4 °F 75.9 °F 82% 29.91 in 9.0 mi South 6.9 mph - N/A   Clear
9:53 PM 82.0 °F 89.4 °F 75.9 °F 82% 29.94 in 9.0 mi South 6.9 mph - N/A   Clear
10:53 PM 81.0 °F 87.3 °F 75.9 °F 85% 29.93 in 9.0 mi South 5.8 mph - N/A   Clear
11:53 PM 80.1 °F 85.4 °F 75.9 °F 87% 29.94 in 9.0 mi SSW 4.6 mph - N/A   Clear